Weather History for KPKD - January, 2012

Change the Weather History Date:

Sunday, January 29, 2012

  Actual Average Record
Temperature  
Mean Temperature 2 °F -  
Max Temperature 14 °F 19 °F 44 °F (1992)
Min Temperature -11 °F -5 °F -41 °F (1951)
Degree Days  
Heating Degree Days 64    
Moisture  
Dew Point 1 °F    
Average Humidity 78    
Maximum Humidity 91    
Minimum Humidity 56    
Precipitation  
Precipitation 0.00 in - - ()
Sea Level Pressure  
Sea Level Pressure 30.07 in    
Wind  
Wind Speed 7 mph (South)    
Max Wind Speed 12 mph    
Max Gust Speed -    
Visibility 8 miles    
Events Snow    
Averages and records for this station are not official NWS values.
T = Trace of Precipitation, MM = Missing Value Source: NWS Daily Summary

Daily Weather History Graph

Daily Weather History Graph

Search for Another Location

Airport or City:

Trip Planner

Search our weather history database for the weather conditions in past years. The results will help you decide how hot, cold, wet, or windy it might be!

Date:

Astronomy

Jan. 29, 2012 Rise Set
Actual Time 7:49 AM CST 5:18 PM CST
Civil Twilight 7:16 AM CST 5:51 PM CST
Nautical Twilight 6:39 AM CST 6:27 PM CST
Astronomical Twilight 6:03 AM CST 7:03 PM CST
Moon 10:11 AM CST (1/29) No Moon Set
Length of Visible Light 10h 34m
Length of Day
9h 29m
Waxing Crescent, 37% of the Moon is Illuminated
Jan 29
Waxing Crescent
Jan 30
First Quarter
Feb 7
Full
Feb 14
Last Quarter
Feb 21
New

Hourly Weather History & Observations

Time (CST) Temp. Windchill Dew Point Humidity Pressure Visibility Wind Dir Wind Speed Gust Speed Precip Events Conditions
12:53 AM 7.0 °F -6.6 °F 3.0 °F 84% 30.06 in 10.0 mi NNW 9.2 mph - N/A   Clear
1:53 AM 6.1 °F -7.8 °F 1.0 °F 80% 30.09 in 10.0 mi NNW 9.2 mph - N/A   Clear
2:53 AM 3.0 °F -10.5 °F -0.9 °F 84% 30.11 in 10.0 mi NW 8.1 mph - N/A   Clear
3:53 AM -2.0 °F -17.7 °F -6.0 °F 83% 30.14 in 10.0 mi NW 9.2 mph - N/A   Clear
4:53 AM -8.0 °F -21.0 °F -9.9 °F 91% 30.17 in 10.0 mi West 5.8 mph - N/A   Clear
5:53 AM -8.0 °F -23.9 °F -11.0 °F 86% 30.18 in 10.0 mi WNW 8.1 mph - N/A   Clear
6:53 AM -8.0 °F -23.9 °F -11.0 °F 86% 30.19 in 10.0 mi WNW 8.1 mph - N/A   Clear
7:53 AM -11.9 °F -25.7 °F -16.1 °F 82% 30.21 in 10.0 mi WNW 5.8 mph - N/A   Clear
8:53 AM -7.1 °F - -9.0 °F 91% 30.22 in 10.0 mi Calm Calm - N/A   Clear
9:53 AM -2.0 °F - -4.0 °F 91% 30.21 in 10.0 mi Calm Calm - 0.00 in   Clear
10:53 AM 1.4 °F -8.3 °F -2.2 °F 85% 30.11 in 10.0 mi West 4.6 mph - N/A   Clear
11:53 AM 6.1 °F -0.9 °F -0.0 °F 76% 30.20 in 10.0 mi WSW 3.5 mph - N/A   Clear
12:53 PM 9.0 °F 2.4 °F 1.0 °F 70% 30.18 in 10.0 mi SW 3.5 mph - N/A   Clear
1:53 PM 12.0 °F - 1.0 °F 61% 30.15 in 10.0 mi Calm Calm - N/A   Clear
2:53 PM 12.9 °F - -0.0 °F 56% 30.13 in 10.0 mi Calm Calm - N/A   Clear
3:53 PM 14.0 °F 6.5 °F 1.0 °F 56% 30.11 in 10.0 mi SE 4.6 mph - N/A   Scattered Clouds
4:53 PM 12.9 °F 2.6 °F 1.0 °F 59% 30.11 in 10.0 mi South 6.9 mph - N/A   Clear
5:53 PM 10.9 °F -0.8 °F 1.9 °F 67% 30.10 in 10.0 mi SSE 8.1 mph - N/A   Partly Cloudy
6:53 PM 12.0 °F 0.5 °F 3.0 °F 67% 30.09 in 10.0 mi SSE 8.1 mph - N/A   Overcast
7:53 PM 12.0 °F -2.0 °F 3.0 °F 67% 30.08 in 10.0 mi South 11.5 mph - N/A   Overcast
8:53 PM 12.9 °F -0.2 °F 3.9 °F 67% 30.04 in 10.0 mi SSE 10.4 mph - N/A   Overcast
9:24 PM 12.2 °F -1.8 °F 6.8 °F 79% 29.90 in 2.0 mi SE 11.5 mph - 0.00 in Snow Light Snow
9:39 PM 12.2 °F -1.0 °F 6.8 °F 79% 29.88 in 3.0 mi SE 10.4 mph - 0.00 in Snow Light Snow
9:53 PM 12.2 °F -1.0 °F 6.8 °F 79% 29.87 in 2.5 mi SE 10.4 mph - N/A Snow Light Snow
10:09 PM 12.2 °F -1.0 °F 8.6 °F 85% 29.86 in 1.8 mi SE 10.4 mph - 0.00 in Snow Light Snow
10:22 PM 12.2 °F -1.0 °F 8.6 °F 85% 29.85 in 2.0 mi SE 10.4 mph - 0.00 in Snow Light Snow
10:30 PM 12.2 °F -1.8 °F 8.6 °F 85% 29.85 in 3.0 mi SE 11.5 mph - 0.00 in Snow Light Snow
10:53 PM 12.9 °F -0.9 °F 9.0 °F 84% 29.94 in 6.0 mi SE 11.5 mph - 0.00 in Snow Light Snow
11:53 PM 14.0 °F 2.0 °F 10.0 °F 84% 29.91 in 9.0 mi SE 9.2 mph - 0.00 in Snow Light Snow